Regional Weather Roundup
Issued by NWS Upton, NY

Current Version | Previous Version | Text Only | Print | Product List | Glossary On
Versions: 1 2 3 4 5 6 7 8 9 10 11 12 13 14 15 16 17 18 19 20 21 22 23 24 25 26 27 28 29 30 31 32 33 34 35 36 37 38 39 40 41 42 43 44 45 46 47 48 49 50
000 ASUS41 KOKX 101008 RWROKX REGIONAL WEATHER ROUNDUP NATIONAL WEATHER SERVICE NEW YORK NY 500 AM EST SAT DEC 10 2016 NOTE: "FAIR" INDICATES FEW OR NO CLOUDS BELOW 12,000 FEET WITH NO SIGNIFICANT WEATHER AND/OR OBSTRUCTIONS TO VISIBILITY. NYZ071-072-176-178-NJZ106-104-101100- NEW YORK CITY METRO AREA CITY SKY/WX TMP DP RH WIND PRES REMARKS Central Park CLEAR 29 15 56 W8G17 30.36R WCI 21 Wall St Helipt SUNNY 31 21 66 VRB7 30.36R WCI 24 Bronx Bot Gard NOT AVBL LaGuardia APRT CLEAR 32 17 54 NW13 30.34R WCI 22 Kennedy INTL PTCLDY 30 15 53 W10 30.35S WCI 21 Breezy Point N/A N/A N/A N/A NW13G20 N/A Newark/Liberty CLEAR 26 17 68 SW7 30.36R WCI 18 Teterboro CLEAR 27 15 61 W7 30.34R WCI 19 $$ NYZ177-179-078>081-101100- LONG ISLAND NEW YORK CITY SKY/WX TMP DP RH WIND PRES REMARKS Jones Beach N/A N/A N/A N/A NW13 N/A Matinecock PT N/A 32 N/A N/A W18G25 N/A WCI 20 Farmingdale CLEAR 28 16 60 NW6 30.33R WCI 22 MacArthur/ISP CLEAR 24 16 71 W7 30.32R WCI 16 Shirley CLEAR 23 16 74 W6 30.32R WCI 16 Westhampton NOT AVBL Southampton NOT AVBL Bridgehampton NOT AVBL East Hampton N/A 26 13 57 NW7 30.30R WCI 19 Montauk N/A 28 13 53 NW14G24 30.30R WCI 17 $$ NYZ052-065-067-101100- HUDSON VALLEY CITY SKY/WX TMP DP RH WIND PRES REMARKS White Plains CLEAR 26 15 63 W8 30.29R WCI 18 Newburgh CLEAR 21 18 86 SW7 30.30R WCI 13 Montgomery PTCLDY 18 14 84 SW5 30.31R WCI 11 Poughkeepsie CLEAR 16 12 84 CALM 30.31R Albany CLOUDY 20 12 71 W9 30.31S WCI 9 $$ NJZ001-105-106-008-010-013-015-019>022-104-101100- NEW JERSEY CITY SKY/WX TMP DP RH WIND PRES REMARKS Newark/Liberty CLEAR 26 17 68 SW7 30.36R WCI 18 Teterboro CLEAR 27 15 61 W7 30.34R WCI 19 Caldwell CLEAR 25 15 66 SW3 30.35R Somerville CLEAR 18 14 84 CALM 30.34R Linden N/A 27 20 74 W5 30.36S WCI 21 Sussex CLEAR 18 14 84 CALM 30.31R Andover N/A 20 14 77 CALM 30.32R Trenton CLOUDY 29 21 72 W8 30.36R WCI 21 Millville CLEAR 27 19 72 W8 30.41R WCI 19 Atlantic City CLEAR 27 17 66 W7 30.40R WCI 19 Wrightstown CLOUDY 30 21 69 W8 30.35R WCI 22 Toms River CLOUDY 23 19 85 W6 30.38R WCI 16 Belmar CLEAR 24 21 88 W7 30.37R WCI 16 $$ PAZ047>061-062-071-101100- EASTERN PENNSYLVANIA CITY SKY/WX TMP DP RH WIND PRES REMARKS Philadelphia PTCLDY 28 17 63 W3 30.41R Allentown CLOUDY 29 21 72 W9 30.35R WCI 20 Scranton CLOUDY 27 20 75 W9 30.30R WCI 18 $$ CTZ002-004>006-009-010-012-RIZ004-006-007-MAZ004-011-015-101100- SOUTHERN NEW ENGLAND IN CT CITY SKY/WX TMP DP RH WIND PRES REMARKS Bradley INTL CLEAR 18 8 65 NW5 30.28R WCI 11 Hartford CLEAR 22 10 60 CALM 30.30R Danbury CLEAR 20 12 71 CALM 30.30R Wtrbury/Oxford CLEAR 19 7 58 CALM 30.27R Bridgeport CLEAR 24 14 65 NW3 30.32R Meriden CLEAR 19 11 70 S3 30.30R New Haven CLEAR 25 13 60 W6 30.31R WCI 18 Chester N/A 21 9 58 CALM 30.27R Groton CLEAR 27 11 51 W9 30.28S WCI 18 Wilimantic CLEAR 23 10 57 W5 30.28R WCI 17 IN RI CITY SKY/WX TMP DP RH WIND PRES REMARKS Providence PTCLDY 21 8 57 CALM 30.27R Block Island PTCLDY 26 13 57 NW14G23 30.27S WCI 14 Westerly CLEAR 24 9 52 W5 30.28S WCI 18 IN MA CITY SKY/WX TMP DP RH WIND PRES REMARKS Boston PTCLDY 22 7 52 W10 30.24S WCI 11 Worcester CLEAR 16 3 56 W6 30.18R WCI 7 Westfield CLEAR 18 9 68 NW6 30.27R WCI 10 Provincetown MOCLDY 26 15 63 NW21G29 30.22R WCI 12 Nantucket CLEAR 25 8 48 NW13G25 30.24R WCI 14 $$ ANZ330-335-338-340-345-350-353-355-101100- COASTAL MARINE OBSERVATIONS STATION/POSITION TIME SKY/WX TEMP WIND PRES VSBY WAVE AIR SEA DIR/SP/G HT/PER (UTC) (F) (DEG/KT/KT) (MB) (MI) (FT/S) NY HARB ENTRANCE 0850 34 51 310/ 17/ 25 1026.6 3/ 4 20 S FIRE ISLAND 0850 34 52 320/ 19/ 25 1026.0 4/ 5 GREAT SOUTH BAY 0930 30 40 N/A 23 SSW MONTAUK P 0850 32 54 300/ 17/ 21 1026.0 4/ 5 15 E BARNEGAT LI 0930 51 N/A 4/ 4 HUDSON CANYON 0850 38 56 1025.8 8/ 7 KINGS POINT 0924 30 45 1027.0 EXECUTION ROCKS 0945 31 280/ 10/ 14 N/A CENTRAL LI SOUND 0930 29 49 320/ 14/ 17 N/A 2/ 4 EASTERN LI SOUND NOT AVBL ROBBINS REEF 0924 30 280/ 13/ 15 1027.6 $$ >>>>>>>>>>>>>>>>>>>>>>>>>>>> KEY <<<<<<<<<<<<<<<<<<<<<<<<<<< > < > SKY/WX - Sky Condition/Present Weather < > TMP - Temperature in Fahrenheit < > DP - Dew Point in Fahrenheit < > RH - Relative Humidity in Percent < > WIND - Direction (from) and Speed in MPH < > PRES - Mean Sea Level Pressure (inches of Hg) < > WCI - Wind Chill Index < > VSB - VISIBILITY IN MILES < > HX - HEAT INDEX < > TC - TEMPERATURE IN CELSIUS < > VRB - VARIABLE WIND DIRECTION < > < >>>>>>>>>>>>>>>>>>>>>>>>>>>> KEY <<<<<<<<<<<<<<<<<<<<<<<<<<<

USA.gov is the U.S. government's official web portal to all federal, state and local government web resources and services.